Find Vigoride VR-3

NORAD ID: 52760 Int'l Des: 2022-057 Owner: MOMENT Country: US operational
LEOCIRCULARRETROGRADESSO

实时位置

正在加载3D地球...

关于 Vigoride VR-3

正在加载描述...

即将过境

Passes for default location (London). Set your location on the main map for personalized predictions.

高度历史

Loading altitude history...

两行轨道根数

1 52760U 22057AE 26135.32265457 .00003324 00000-0 12867-3 0 9996
2 52760 97.6555 274.4449 0007335 233.6897 126.3664 15.26912552220144
Epoch: May 15, 2026 • Age: 16 hours

当前状态

高度 501.8 km
速度 7.62 km/s
星下点 69.46°N, 23.8°E
发射日期 May 25, 2022
运行时间 3.9 years
类型 other

技术详情

分类 Payload
质量 412.00 kg
干质量 292.00 kg
总质量 412.00 kg
长度 1.20 m
直径 0.50 m
跨度 6.50 m
形状 Box+ 2 pan
制造商 MOMENT
平台类型 Vigoride
阶段状态 In Orbit
所有者/国家 MOMENT/US

Most Searched